Time,TemperatureF,DewpointF,PressureIn,WindDirection,WindDirectionDegrees,WindSpeedMPH,WindSpeedGustMPH,Humidity,HourlyPrecipIn,Conditions,Clouds,dailyrainin,SolarRadiationWatts/m^2,SoftwareType,DateUTC
2013-10-27 00:00:00,54.0,31.0,30.00,NE,37,2.0,-999.0,40,0.00,,,-99.99,-2.100000,,2013-10-27 07:00:00,
2013-10-27 00:42:00,54.0,31.0,30.00,NE,37,2.0,-999.0,40,0.00,,,-99.99,-2.100000,,2013-10-27 07:42:00,
2013-10-27 00:52:00,54.0,31.0,30.00,NE,37,2.0,-999.0,40,0.00,,,-99.99,-2.100000,,2013-10-27 07:52:00,
2013-10-27 02:00:00,55.0,27.0,29.99,NNE,14,2.0,-999.0,33,0.00,,,-99.99,-0.700000,,2013-10-27 09:00:00,
2013-10-27 02:43:00,55.0,27.0,29.99,NNE,14,2.0,-999.0,33,0.00,,,-99.99,-0.700000,,2013-10-27 09:43:00,
2013-10-27 02:54:00,55.0,27.0,29.99,NNE,14,2.0,-999.0,33,0.00,,,-99.99,-0.700000,,2013-10-27 09:54:00,
2013-10-27 03:00:00,52.0,27.0,29.97,NNE,23,4.0,-999.0,38,0.00,,,-99.99,-2.900000,,2013-10-27 10:00:00,
2013-10-27 03:42:00,52.0,27.0,29.97,NNE,23,4.0,-999.0,38,0.00,,,-99.99,-2.900000,,2013-10-27 10:42:00,
2013-10-27 03:53:00,52.0,27.0,29.97,NNE,23,4.0,-999.0,38,0.00,,,-99.99,-2.900000,,2013-10-27 10:53:00,
2013-10-27 04:00:00,54.0,26.0,29.95,North,6,4.0,-999.0,33,0.00,,,-99.99,-1.400000,,2013-10-27 11:00:00,
2013-10-27 04:42:00,54.0,26.0,29.95,North,6,4.0,-999.0,33,0.00,,,-99.99,-1.400000,,2013-10-27 11:42:00,
2013-10-27 04:52:00,54.0,26.0,29.95,North,6,4.0,-999.0,33,0.00,,,-99.99,-1.400000,,2013-10-27 11:52:00,
2013-10-27 08:00:00,49.0,26.0,29.89,North,2,3.0,-999.0,40,0.00,,,-99.99,4.300000,,2013-10-27 15:00:00,
2013-10-27 08:44:00,49.0,26.0,29.89,North,2,3.0,-999.0,40,0.00,,,-99.99,4.300000,,2013-10-27 15:44:00,
2013-10-27 08:54:00,49.0,26.0,29.89,North,2,3.0,-999.0,40,0.00,,,-99.99,4.300000,,2013-10-27 15:54:00,
2013-10-27 09:00:00,54.0,26.0,29.89,NE,34,3.0,-999.0,33,0.00,,,-99.99,26.200001,,2013-10-27 16:00:00,
2013-10-27 09:43:00,54.0,26.0,29.89,NE,34,3.0,-999.0,33,0.00,,,-99.99,26.200001,,2013-10-27 16:43:00,
2013-10-27 09:53:00,54.0,26.0,29.89,NE,34,3.0,-999.0,33,0.00,,,-99.99,26.200001,,2013-10-27 16:53:00,
2013-10-27 10:00:00,65.0,30.0,29.88,North,11,1.0,-999.0,27,0.00,,,-99.99,265.000000,,2013-10-27 17:00:00,
2013-10-27 10:43:00,65.0,30.0,29.88,North,11,1.0,-999.0,27,0.00,,,-99.99,265.000000,,2013-10-27 17:43:00,
2013-10-27 10:53:00,65.0,30.0,29.88,North,11,1.0,-999.0,27,0.00,,,-99.99,265.000000,,2013-10-27 17:53:00,
2013-10-27 11:00:00,70.0,31.0,29.87,West,276,2.0,-999.0,23,0.00,,,-99.99,478.100006,,2013-10-27 18:00:00,
2013-10-27 11:43:00,70.0,31.0,29.87,West,276,2.0,-999.0,23,0.00,,,-99.99,478.100006,,2013-10-27 18:43:00,
2013-10-27 11:52:00,70.0,31.0,29.87,West,276,2.0,-999.0,23,0.00,,,-99.99,478.100006,,2013-10-27 18:52:00,
2013-10-27 12:00:00,72.0,32.0,29.85,WSW,240,4.0,-999.0,22,0.00,,,-99.99,580.500000,,2013-10-27 19:00:00,
2013-10-27 12:42:00,72.0,32.0,29.85,WSW,240,4.0,-999.0,22,0.00,,,-99.99,580.500000,,2013-10-27 19:42:00,
2013-10-27 12:52:00,72.0,32.0,29.85,WSW,240,4.0,-999.0,22,0.00,,,-99.99,580.500000,,2013-10-27 19:52:00,
2013-10-27 13:00:00,73.0,35.0,29.80,SW,236,2.0,-999.0,24,0.00,,,-99.99,626.700012,,2013-10-27 20:00:00,
2013-10-27 13:43:00,73.0,35.0,29.80,SW,236,2.0,-999.0,24,0.00,,,-99.99,626.700012,,2013-10-27 20:43:00,
2013-10-27 13:52:00,73.0,35.0,29.80,SW,236,2.0,-999.0,24,0.00,,,-99.99,626.700012,,2013-10-27 20:52:00,
2013-10-27 14:00:00,73.0,33.0,29.77,WSW,255,3.0,-999.0,22,0.00,,,-99.99,616.799988,,2013-10-27 21:00:00,
2013-10-27 14:43:00,73.0,33.0,29.77,WSW,255,3.0,-999.0,22,0.00,,,-99.99,616.799988,,2013-10-27 21:43:00,
2013-10-27 14:54:00,73.0,33.0,29.77,WSW,255,3.0,-999.0,22,0.00,,,-99.99,616.799988,,2013-10-27 21:54:00,
2013-10-27 16:00:00,69.0,35.0,29.69,SSW,207,4.0,-999.0,29,0.00,,,-99.99,249.600006,,2013-10-27 23:00:00,
2013-10-27 16:42:00,69.0,35.0,29.69,SSW,207,4.0,-999.0,29,0.00,,,-99.99,249.600006,,2013-10-27 23:42:00,
2013-10-27 16:52:00,69.0,35.0,29.69,SSW,207,4.0,-999.0,29,0.00,,,-99.99,249.600006,,2013-10-27 23:52:00,
2013-10-27 17:00:00,64.0,38.0,29.63,West,262,4.0,-999.0,37,0.00,,,-99.99,41.200001,,2013-10-28 00:00:00,
2013-10-27 17:43:00,64.0,38.0,29.63,West,262,4.0,-999.0,37,0.00,,,-99.99,41.200001,,2013-10-28 00:43:00,
2013-10-27 17:52:00,64.0,38.0,29.63,West,262,4.0,-999.0,37,0.00,,,-99.99,41.200001,,2013-10-28 00:52:00,
2013-10-27 18:00:00,58.0,35.0,29.60,South,183,2.0,-999.0,41,0.00,,,-99.99,23.100000,,2013-10-28 01:00:00,
2013-10-27 18:42:00,58.0,35.0,29.60,South,183,2.0,-999.0,41,0.00,,,-99.99,23.100000,,2013-10-28 01:42:00,
2013-10-27 18:52:00,58.0,35.0,29.60,South,183,2.0,-999.0,41,0.00,,,-99.99,23.100000,,2013-10-28 01:52:00,
2013-10-27 23:00:00,45.0,42.0,29.55,SSE,160,2.0,-999.0,88,0.00,,,-99.99,-1.600000,,2013-10-28 06:00:00,
2013-10-27 23:43:00,45.0,42.0,29.55,SSE,160,2.0,-999.0,88,0.00,,,-99.99,-1.600000,,2013-10-28 06:43:00,
2013-10-27 23:52:00,45.0,42.0,29.55,SSE,160,2.0,-999.0,88,0.00,,,-99.99,-1.600000,,2013-10-28 06:52:00,